Location: Newark
(22.3145°N, 88.6625°E)
Time: 00:49:08
(UTC+00:00)

Envisat - Pass Details

Date: 25 September 2019
Orbit: 764 x 766 km, 98.1° (Epoch: 15 October)

Event Time Altitude Azimuth Distance (km) Brightness Sun altitude
Rises 12:49:46 0° 180° (S) 3,217 6.2 -12.5°
Reaches altitude 10° 12:52:08 10° 186° (S) 2,293 5.5 -13.0°
Maximum altitude 12:57:00 48° 260° (W) 994 4.1 -14.2°
Drops below altitude 10° 13:01:53 10° 334° (NNW) 2,300 5.9 -15.3°
Sets 13:04:16 0° 340° (NNW) 3,228 6.6 -15.8°
